www.pogodaiklimat.ru

Погода и климат >> Архив погоды >> Бангладеш >> Кумархали


ПОГОДА в Кумархали

  • Прогноз погоды в Кумархали
  • Монитор погоды в Кумархали

АРХИВ ПОГОДЫ в Кумархали

Время (UTC), дата Ветер
(напр.,м/с)
 
Видим.   Явления Облачность Т
(С)
Тd
(С)
f
(%)
Тe
(С)
Тes
(С)
Комфортность P
(гПа)
Po
(гПа)
Тmin
(С)
Tmax
(С)
R
(мм)
R24
(мм)
S
(см)
18 12.08 Ю 1 4000 м 10/5 480 м
[Sc As op]
+28.8 +27.0 90 +45 +45 опасность
перегрева
998.9 997.5
00 13.08 Ю 1 4000 м слаб. дождь 10/5 480 м
[Sc As op]
+27.0 +26.0 94 +40 +40 очень
душно
997.6 996.2 3
06 13.08 Ю 2 7000 м {дождь} 10/5 480 м
[Sc As op]
+30.8 +26.0 76 +46 +49 опасность
перегрева
999.2 997.8 12
18 13.08 Ю 1 4000 м 10/5 480 м
[Sc As op]
+26.8 +26.0 95 +40 +40 очень
душно
1002.5 1001.1
00 14.08 Ю 1 4000 м 10/5 480 м
[Sc As op]
+26.4 +26.0 98 +39 +39 очень
душно
1001.3 999.9
06 14.08 ЮВ 1 3000 м сильн. дождь 10/6 240 м
[Frnb As op]
+25.0 +25.0 100 +36 +38 очень
душно
1004.0 1002.6 25
12 14.08 штиль 0 6000 м {дождь} 8/4 500 м
[Sc Ac As]
+27.0 +26.0 94 +40 +40 очень
душно
1001.9 1000.5 +29.0 15
18 14.08 Ю 1 5000 м 4/0
[Ac trans]
+27.2 +26.0 93 +41 +41 опасность
перегрева
1004.9 1003.5
00 15.08 Ю 1 5000 м 8/4 500 м
[Sc Ac As]
+26.8 +26.0 95 +40 +40 очень
душно
1002.6 1001.2
06 15.08 Ю 1 6000 м 10/5 500 м
[Sc As op]
+30.0 +26.0 79 +45 +47 опасность
перегрева
1004.7 1003.2
12 15.08 Ю 1 6000 м 8/4 500 м
[Sc As trans]
+29.6 +25.0 76 +42 +43 опасность
перегрева
1001.5 1000.1 +31.5
18 15.08 Ю 1 5000 м 10/5 500 м
[Sc As op]
+27.5 +27.0 97 +43 +43 опасность
перегрева
1003.4 1002.0
00 16.08 Ю 1 5000 м 10/6 240 м
[St As op]
+27.5 +27.5 100 +44 +44 опасность
перегрева
1002.0 1000.5
06 16.08 Ю 1 6000 м 9/5 500 м
[Sc As trans]
+31.0 +27.0 79 +48 +55 опасность
перегрева
1003.0 1001.5
12 16.08 Ю 1 5000 м гроза, ливневой дождь 10/6 450 м
[Cb cap As op]
+26.2 +26.0 99 +39 +39 очень
душно
999.9 998.5 +32.3 5
18 16.08 Ю 1 5000 м зарница {дождь} 10/5 480 м
[Cb calv As op]
+27.2 +26.0 93 +41 +41 опасность
перегрева
1001.0 999.5 2
00 17.08 ЮВ 1 5000 м 8/4 500 м
[Sc As trans]
+26.3 +26.0 98 +39 +39 очень
душно
1001.1 999.6
06 17.08 ЮЗ 1 6000 м {дождь} 9/5 480 м
[Sc As trans]
+28.2 +26.0 88 +42 +49 опасность
перегрева
1003.3 1001.8 0.5
09 17.08 Ю 1 6000 м 8/6 500 м
[Sc diur, vesp As trans]
+31.2 +25.0 70 +45 +49 опасность
перегрева
1001.4 1000.0
12 17.08 Ю 1 6000 м 6/5 500 м
[Sc diur, vesp As trans]
+29.7 +27.0 85 +47 +47 опасность
перегрева
999.8 998.4 +31.5
18 17.08 Ю 1 5000 м 3/0 300 м
[As trans]
+27.5 +26.0 92 +41 +41 опасность
перегрева
1002.5 1001.0
00 18.08 ЮВ 1 5000 м 6/4 240 м
[St As trans]
+26.5 +26.0 97 +40 +40 очень
душно
1002.0 1000.5
06 18.08 ЮВ 1 6000 м 8/6 480 м
[Sc diur, vesp As trans]
+30.0 +25.0 75 +43 +50 опасность
перегрева
1003.9 1002.4
12 18.08 Ю 1 6000 м {дождь} 6/6 500 м
[Sc diur, vesp]
+30.5 +26.0 77 +46 +46 опасность
перегрева
1001.8 1000.4 +31.7 2
18 18.08 Ю 1 5000 м {дождь} 8/4 500 м
[Sc As trans]
+28.0 +26.0 89 +42 +42 опасность
перегрева
1004.5 1003.0 1
00 19.08 Ю 1 5000 м 3/0
[As trans]
+26.5 +26.0 97 +40 +40 очень
душно
1003.6 1002.2
06 19.08 Ю 2 6000 м 6/6 500 м
[Sc diur, vesp]
+31.8 +25.0 67 +45 +54 опасность
перегрева
1005.4 1004.0

 

Местоположение метеостанции Кумархали (Бангладеш): широта 23.52 долгота 89.15 высота над уровнем моря 12 м.

В архиве по умолчанию представлена погода в Кумархали за последнюю неделю. Архивные данные за месяц целиком и за предыдущие месяцы, начиная с января 2011 года, Вы можете получить, выбрав интересующий диапазон дат из раскрывающегося списка и нажав кнопку "Ввод!".


*Определитесь, кто Вы:
робот инопланетянин человек

Внимание! Время в таблицах - всемирное. Для получения местного времени необходимо прибавить поправку, которая равна 6.5 ч.

Смотрите также архив погоды в соседних городах и на ближайших метеорологических станциях:

Погода в Чуаданге (Бангладеш) (37 км)
Погода в Джессоре (Бангладеш) (38 км)
Погода в Кришнанагаре (Западная Бенгалия, Индия) (66 км)
Погода в Ишварди (Бангладеш) (69 км)
Погода в Фаридпуре (Бангладеш) (72 км)
Погода в Тараше (Бангладеш) (83 км)
Погода в Гопалгандж-Садаре (Бангладеш) (89 км)
Погода в Саткхире (Бангладеш) (89 км)
Погода в Кхулне (Бангладеш) (91 км)
Погода в Багати (Западная Бенгалия, Индия) (100 км)

Пояснения к столбцам:

Ветер - указаны скорость ветра в м/с - средняя за 10 мин, порывы в срок и между сроками (в фигурных скобках) и направление, откуда дует ветер: С - северный, СВ - северо-восточный, В - восточный, ЮВ - юго-восточный, Ю - южный, ЮЗ - юго-западный, З - западный, СЗ - северо-западный.
Видимость - горизонтальная дальность видимости в метрах или километрах. При видимости от 1 до 10 км при отсутствии осадков обычно наблюдается дымка, при ухудшении видимости до 1 км и менее - туман. В сухую погоду видимость может ухудшаться дымом, пылью или мглою.
Явления - указаны атмосферные явления, наблюдавшиеся в срок или в последний час перед сроком; фигурными скобками обозначены явления, наблюдавшиеся между сроками (за 1-3 часа до срока); квадратными скобками обозначены град или гололедные отложения с указанием их диаметра в мм.
Облачность - указаны через наклонную черту общая и нижняя облачность в баллах и высота нижней границы облаков в метрах; квадратными скобками обозначены формы облаков: Ci - перистые, Cs - перисто-слоистые, Cc - перисто-кучевые, Ac - высококучевые, As - высокослоистые, Sc - слоисто-кучевые, Ns - слоисто-дождевые, Cu - кучевые, Cb - кучево-дождевые. Подробнее классификацию облаков см. в Атласе облаков (PDF).
T - Температура воздуха - температура, измеренная на высоте 2 м над землей.
Td - Температура точки росы - температура, при понижении до которой содержащийся в воздухе водяной пар достигнет насыщения.
f - Относительная влажность воздуха - влажноcть воздуха, измеренная на высоте 2 м над землей.
Te - Эффективная температура - температура, которую ощущает одетый по сезону человек в тени. Характеристика душности погоды. При расчете учитывается влияние влажности воздуха и скорости ветра на теплоощущения человека.
Tes - Эффективная температура на солнце - температура, которую ощущает человек, с поправкой на солнечный нагрев. Характеристика знойности погоды. Зависит от высоты солнца над горизонтом, облачности и скорости ветра. Ночью, в пасмурную погоду, а также при ветре 12 м/с и более поправка равна нулю.
P - Атмосферное давление - приведенное к уровню моря атмосферное давление.
Po - Атмосферное давление - измеренное на уровне метеостанции атмосферное давление.
Tmin - Минимальная температура - минимум температуры воздуха на высоте 2 м над землей.
Tmax - Максимальная температура - максимум температуры воздуха на высоте 2 м над землей.
R - Количество осадков - Количество выпавших осадков за период времени, мм. При наведении курсора мыши на число - период времени, за который выпало указанное количество осадков.
R24 - Количество осадков - Количество выпавших осадков за 24 часа, мм.
S - Снежный покров - Высота снежного покрова, см. При наведении курсора мыши на число - состояние снежного покрова и степень покрытия местности в баллах.